Location: Karcze
(52.0945°N, 22.4786°E)
Time: 12:45:31
(UTC+00:00)

Cosmos 2082 Rocket - Pass Details

Date: 14 July 2020
Orbit: 833 x 853 km, 71.0° (Epoch: 07 August)

Event Time Altitude Azimuth Distance (km) Brightness Sun altitude
Exits shadow 00:40:49 11° 180° (S) 2,434 4.1 -11.4°
Maximum altitude 00:46:03 44° 110° (ESE) 1,166 3.0 -11.0°
Drops below altitude 10° 00:51:26 10° 40° (NE) 2,489 6.2 -10.6°
Sets 00:53:59 0° 34° (NE) 3,427 7.7 -10.4°
